Weather History for Cook, MN

Change the Weather History Date:

Monday, December 3, 2012

  Actual Average Record
Temperature  
Mean Temperature 34 °F -  
Max Temperature 44 °F 27 °F 48 °F (1998)
Min Temperature 24 °F 12 °F -23 °F (2002)
Degree Days  
Heating Degree Days 31    
Moisture  
Dew Point 35 °F    
Average Humidity 87    
Maximum Humidity 100    
Minimum Humidity 69    
Precipitation  
Precipitation 0.01 in - - ()
Sea Level Pressure  
Sea Level Pressure 29.55 in    
Wind  
Wind Speed 14 mph (SSW)    
Max Wind Speed 23 mph    
Max Gust Speed 33 mph    
Visibility 7 miles    
Events Rain    
Averages and records for this station are not official NWS values.
T = Trace of Precipitation, MM = Missing Value Source: NWS Daily Summary

Daily Weather History Graph

Daily Weather History Graph

Search for Another Location

Airport:

Trip Planner

Search our weather history database for the weather conditions in past years. The results will help you decide how hot, cold, wet, or windy it might be!

Date:

Astronomy

Dec. 03, 2012 Rise Set
Actual Time 7:41 AM CST 4:19 PM CST
Civil Twilight 7:06 AM CST 4:55 PM CST
Nautical Twilight 6:27 AM CST 5:34 PM CST
Astronomical Twilight 5:49 AM CST 6:11 PM CST
Moon 9:19 PM CST (12/3) 10:54 AM CST (12/3)
Length of Visible Light 9h 48m
Length of Day
8h 37m
Waning Gibbous, 78% of the Moon is Illuminated
Dec 3
Waning Gibbous
Dec 6
Last Quarter
Dec 13
New
Dec 19
First Quarter
Dec 28
Full

Hourly Weather History & Observations

Time (CST) Temp. Windchill Dew Point Humidity Pressure Visibility Wind Dir Wind Speed Gust Speed Precip Events Conditions
12:16 AM 37.4 °F 29.3 °F 35.6 °F 93% 29.67 in 10.0 mi SSE 12.7 mph 20.7 mph N/A   Clear
12:37 AM 39.2 °F 30.2 °F 35.6 °F 87% 29.66 in 10.0 mi SSE 17.3 mph 25.3 mph N/A   Clear
12:57 AM 39.2 °F 31.2 °F 35.6 °F 87% 29.65 in 10.0 mi SSE 13.8 mph 23.0 mph N/A   Clear
1:17 AM 39.2 °F 31.6 °F 35.6 °F 87% 29.64 in 10.0 mi South 12.7 mph 24.2 mph N/A   Clear
1:37 AM 39.2 °F 29.8 °F 35.6 °F 87% 29.63 in 10.0 mi SSE 18.4 mph 29.9 mph N/A   Clear
1:57 AM 39.2 °F 30.2 °F 35.6 °F 87% 29.61 in 10.0 mi SSE 17.3 mph 28.8 mph N/A   Scattered Clouds
2:16 AM 39.2 °F 29.3 °F 35.6 °F 87% 29.61 in 7.0 mi SSE 20.7 mph 32.2 mph N/A   Scattered Clouds
2:37 AM 39.2 °F 30.8 °F 35.6 °F 87% 29.60 in 7.0 mi SSE 15.0 mph 25.3 mph N/A   Scattered Clouds
2:57 AM 39.2 °F 29.6 °F 37.4 °F 93% 29.58 in 7.0 mi SSE 19.6 mph 27.6 mph N/A   Clear
3:16 AM 39.2 °F 29.6 °F 37.4 °F 93% 29.57 in 7.0 mi SSE 19.6 mph 28.8 mph N/A   Scattered Clouds
3:37 AM 39.2 °F 29.3 °F 37.4 °F 93% 29.57 in 7.0 mi SSE 20.7 mph 28.8 mph N/A   Clear
3:56 AM 39.2 °F 30.5 °F 37.4 °F 93% 29.56 in 7.0 mi SSE 16.1 mph 26.5 mph N/A   Clear
4:17 AM 39.2 °F 30.8 °F 37.4 °F 93% 29.56 in 7.0 mi SSE 15.0 mph 24.2 mph N/A   Clear
4:36 AM 39.2 °F 30.2 °F 37.4 °F 93% 29.55 in 7.0 mi SSE 17.3 mph 26.5 mph N/A   Clear
4:57 AM 39.2 °F 31.2 °F 37.4 °F 93% 29.55 in 5.0 mi SSE 13.8 mph 23.0 mph N/A   Clear
5:17 AM 41.0 °F 33.5 °F 37.4 °F 87% 29.54 in 7.0 mi SSE 13.8 mph 24.2 mph N/A   Clear
5:36 AM 41.0 °F 34.7 °F 37.4 °F 87% 29.55 in 5.0 mi SSE 10.4 mph 23.0 mph N/A   Clear
5:57 AM 41.0 °F 33.5 °F 37.4 °F 87% 29.53 in 5.0 mi SSE 13.8 mph 21.9 mph N/A   Scattered Clouds
6:17 AM 39.2 °F 32.0 °F 37.4 °F 93% 29.53 in 5.0 mi SSE 11.5 mph 18.4 mph N/A   Scattered Clouds
6:36 AM 39.2 °F 31.6 °F 37.4 °F 93% 29.52 in 5.0 mi SSE 12.7 mph 20.7 mph N/A   Mostly Cloudy
6:57 AM 41.0 °F 33.5 °F 37.4 °F 87% 29.52 in 5.0 mi SSE 13.8 mph 23.0 mph N/A   Mostly Cloudy
7:17 AM 41.0 °F 33.9 °F 39.2 °F 93% 29.51 in 4.0 mi South 12.7 mph 25.3 mph N/A   Overcast
7:36 AM 41.0 °F 34.3 °F 39.2 °F 93% 29.51 in 5.0 mi South 11.5 mph 21.9 mph N/A   Overcast
7:57 AM 41.0 °F 34.3 °F 39.2 °F 93% 29.50 in 4.0 mi South 11.5 mph 20.7 mph N/A   Overcast
8:17 AM 41.0 °F 34.7 °F 39.2 °F 93% 29.50 in 2.5 mi SSE 10.4 mph 19.6 mph N/A   Overcast
8:36 AM 41.0 °F 35.8 °F 39.2 °F 93% 29.50 in 1.5 mi South 8.1 mph 16.1 mph N/A   Overcast
8:57 AM 41.0 °F 34.3 °F 39.2 °F 93% 29.49 in 1.2 mi South 11.5 mph 17.3 mph N/A   Overcast
9:17 AM 42.8 °F 37.5 °F 41.0 °F 93% 29.49 in 1.2 mi South 9.2 mph 17.3 mph N/A   Overcast
9:37 AM 42.8 °F 38.6 °F 41.0 °F 93% 29.48 in 1.2 mi SSE 6.9 mph - N/A   Overcast
9:57 AM 42.8 °F 36.6 °F 41.0 °F 93% 29.47 in 1.2 mi SSE 11.5 mph 16.1 mph N/A   Overcast
10:16 AM 42.8 °F 37.0 °F 42.8 °F 100% 29.46 in 1.5 mi South 10.4 mph 16.1 mph N/A   Overcast
10:37 AM 42.8 °F 38.6 °F 42.8 °F 100% 29.47 in 2.0 mi South 6.9 mph 16.1 mph N/A   Overcast
10:57 AM 42.8 °F 37.5 °F 42.8 °F 100% 29.47 in 2.5 mi South 9.2 mph - N/A   Overcast
11:16 AM 44.6 °F 41.4 °F 42.8 °F 93% 29.46 in 2.0 mi South 5.8 mph - N/A   Overcast
11:37 AM 44.6 °F 40.7 °F 42.8 °F 93% 29.45 in 2.5 mi South 6.9 mph - N/A   Overcast
11:57 AM 44.6 °F 40.2 °F 44.6 °F 100% 29.45 in 2.5 mi South 8.1 mph - N/A   Overcast
12:16 PM 44.6 °F 41.4 °F 44.6 °F 100% 29.44 in 3.0 mi South 5.8 mph - N/A   Overcast
12:37 PM 44.6 °F 41.4 °F 44.6 °F 100% 29.43 in 5.0 mi South 5.8 mph 9.2 mph N/A   Overcast
12:57 PM 44.6 °F 40.7 °F 44.6 °F 100% 29.43 in 5.0 mi SSW 6.9 mph 10.4 mph N/A   Overcast
1:16 PM 44.6 °F 40.7 °F 44.6 °F 100% 29.43 in 4.0 mi SSW 6.9 mph - N/A   Overcast
1:37 PM 44.6 °F 39.7 °F 44.6 °F 100% 29.42 in 4.0 mi SSW 9.2 mph - N/A   Overcast
1:57 PM 44.6 °F 39.7 °F 42.8 °F 93% 29.43 in 4.0 mi SW 9.2 mph - N/A   Overcast
2:16 PM 44.6 °F 38.4 °F 42.8 °F 93% 29.43 in 1.8 mi WSW 12.7 mph 18.4 mph N/A Rain Light Rain
2:37 PM 44.6 °F 39.7 °F 42.8 °F 93% 29.44 in 3.0 mi WSW 9.2 mph - 0.01 in Rain Light Rain
2:57 PM 44.6 °F 39.2 °F 42.8 °F 93% 29.46 in 4.0 mi West 10.4 mph 16.1 mph N/A Rain Light Rain
3:16 PM 42.8 °F 34.0 °F 39.2 °F 87% 29.48 in 7.0 mi West 20.7 mph 26.5 mph N/A   Drizzle
3:37 PM 39.2 °F 31.6 °F 37.4 °F 93% 29.48 in 10.0 mi West 12.7 mph 21.9 mph N/A Rain Light Rain
3:57 PM 39.2 °F 32.0 °F 37.4 °F 93% 29.50 in 10.0 mi West 11.5 mph 17.3 mph N/A   Overcast
4:16 PM 39.2 °F 32.5 °F 37.4 °F 93% 29.50 in 10.0 mi WSW 10.4 mph - N/A   Overcast
4:37 PM 39.2 °F 31.2 °F 37.4 °F 93% 29.52 in 10.0 mi WSW 13.8 mph 18.4 mph N/A   Overcast
4:56 PM 39.2 °F 32.0 °F 37.4 °F 93% 29.52 in 10.0 mi WSW 11.5 mph 18.4 mph N/A   Overcast
5:17 PM 39.2 °F 30.5 °F 35.6 °F 87% 29.54 in 10.0 mi West 16.1 mph 23.0 mph N/A   Mostly Cloudy
5:37 PM 39.2 °F 31.2 °F 35.6 °F 87% 29.54 in 10.0 mi WSW 13.8 mph 21.9 mph N/A   Overcast
5:56 PM 39.2 °F 32.5 °F 33.8 °F 81% 29.55 in 10.0 mi WSW 10.4 mph - N/A   Overcast
6:17 PM 39.2 °F 29.8 °F 33.8 °F 81% 29.55 in 10.0 mi West 18.4 mph 23.0 mph N/A   Mostly Cloudy
6:36 PM 37.4 °F 27.2 °F 30.2 °F 75% 29.57 in 10.0 mi West 19.6 mph 32.2 mph N/A   Mostly Cloudy
6:57 PM 37.4 °F 27.8 °F 30.2 °F 75% 29.58 in 10.0 mi West 17.3 mph 27.6 mph N/A   Overcast
7:17 PM 37.4 °F 26.4 °F 28.4 °F 70% 29.59 in 10.0 mi WSW 23.0 mph 33.4 mph N/A   Overcast
7:36 PM 37.4 °F 27.8 °F 28.4 °F 70% 29.59 in 10.0 mi WSW 17.3 mph 23.0 mph N/A   Mostly Cloudy
7:57 PM 37.4 °F 26.9 °F 28.4 °F 70% 29.59 in 10.0 mi WSW 20.7 mph 26.5 mph N/A   Overcast
8:17 PM 37.4 °F 28.5 °F 28.4 °F 70% 29.60 in 10.0 mi West 15.0 mph 27.6 mph N/A   Overcast
8:36 PM 35.6 °F 27.1 °F 28.4 °F 75% 29.60 in 10.0 mi West 12.7 mph 24.2 mph N/A   Overcast
8:57 PM 33.8 °F 23.2 °F 26.6 °F 75% 29.61 in 10.0 mi West 17.3 mph 26.5 mph N/A   Overcast
9:17 PM 33.8 °F 22.8 °F 24.8 °F 70% 29.62 in 10.0 mi West 18.4 mph 28.8 mph N/A   Overcast
9:36 PM 32.0 °F 19.8 °F 23.0 °F 69% 29.64 in 10.0 mi West 20.7 mph 31.1 mph N/A   Overcast
9:57 PM 30.2 °F 18.1 °F 21.2 °F 69% 29.66 in 10.0 mi West 18.4 mph 27.6 mph N/A   Overcast
10:17 PM 28.4 °F 15.4 °F 19.4 °F 69% 29.67 in 10.0 mi West 19.6 mph 32.2 mph N/A   Overcast
10:36 PM 26.6 °F 13.8 °F 17.6 °F 69% 29.67 in 10.0 mi West 17.3 mph 27.6 mph N/A   Mostly Cloudy
10:57 PM 26.6 °F 13.8 °F 17.6 °F 69% 29.68 in 10.0 mi West 17.3 mph 29.9 mph N/A   Scattered Clouds
11:16 PM 26.6 °F 12.7 °F 17.6 °F 69% 29.69 in 10.0 mi West 20.7 mph 27.6 mph N/A   Clear
11:37 PM 24.8 °F 10.3 °F 17.6 °F 74% 29.70 in 10.0 mi West 20.7 mph 33.4 mph N/A   Mostly Cloudy
11:57 PM 24.8 °F 10.3 °F 15.8 °F 69% 29.71 in 10.0 mi West 20.7 mph 33.4 mph N/A   Overcast